Weather History for Sedona, AZ

Change the Weather History Date:

Saturday, March 16, 2013

  Actual Average Record
Temperature  
Mean Temperature 66 °F -  
Max Temperature 77 °F 65 °F 77 °F (2013)
Min Temperature 55 °F 34 °F 46 °F (2012)
Cooling Degree Days 1    
Growing Degree Days 16 (Base 50)    
Moisture  
Dew Point 32 °F    
Average Humidity 33    
Maximum Humidity 47    
Minimum Humidity 18    
Precipitation  
Precipitation 0.00 in - - ()
Sea Level Pressure  
Sea Level Pressure 29.96 in    
Wind  
Wind Speed 6 mph (ENE)    
Max Wind Speed 15 mph    
Max Gust Speed 44 mph    
Visibility 10 miles    
Events Rain    
Averages and records for this station are not official NWS values.
T = Trace of Precipitation, MM = Missing Value Source: NWS Daily Summary

Daily Weather History Graph

Daily Weather History Graph

Search for Another Location

Airport:

Trip Planner

Search our weather history database for the weather conditions in past years. The results will help you decide how hot, cold, wet, or windy it might be!

Date:

Astronomy

Mar. 16, 2013 Rise Set
Actual Time 6:35 AM MST 6:35 PM MST
Civil Twilight 6:10 AM MST 7:01 PM MST
Nautical Twilight 5:41 AM MST 7:30 PM MST
Astronomical Twilight 5:11 AM MST 8:00 PM MST
Moon 9:20 AM MST (3/16) 11:35 PM MST (3/16)
Length of Visible Light 12h 50m
Length of Day
11h 59m
Waxing Crescent, 24% of the Moon is Illuminated
Mar 16
Waxing Crescent
Mar 19
First Quarter
Mar 27
Full
Apr 2
Last Quarter
Apr 10
New

Hourly Weather History & Observations

Time (MST) Temp. Dew Point Humidity Pressure Visibility Wind Dir Wind Speed Gust Speed Precip Events Conditions
12:15 AM 57.2 °F 32.0 °F 38% 30.05 in 10.0 mi NNE 8.1 mph - N/A   Clear
12:35 AM 60.8 °F 30.2 °F 31% 30.05 in 10.0 mi NE 5.8 mph - N/A   Clear
12:55 AM 59.0 °F 30.2 °F 34% 30.04 in 10.0 mi Calm Calm - N/A   Clear
1:15 AM 59.0 °F 30.2 °F 34% 30.04 in 10.0 mi Calm Calm - N/A   Clear
1:35 AM 59.0 °F 30.2 °F 34% 30.04 in 10.0 mi Calm Calm - N/A   Clear
1:55 AM 57.2 °F 30.2 °F 36% 30.04 in 10.0 mi NE 3.5 mph - N/A   Clear
2:15 AM 59.0 °F 30.2 °F 34% 30.03 in 10.0 mi ENE 3.5 mph - N/A   Clear
2:35 AM 55.4 °F 30.2 °F 38% 30.02 in 10.0 mi NE 6.9 mph - N/A   Clear
2:55 AM 55.4 °F 32.0 °F 41% 30.02 in 10.0 mi NNE 8.1 mph - N/A   Clear
3:15 AM 55.4 °F 32.0 °F 41% 30.00 in 10.0 mi NE 9.2 mph - N/A   Clear
3:35 AM 55.4 °F 30.2 °F 38% 30.00 in 10.0 mi NE 8.1 mph - N/A   Clear
3:55 AM 55.4 °F 32.0 °F 41% 30.00 in 10.0 mi NE 9.2 mph - N/A   Clear
4:35 AM 55.4 °F 32.0 °F 41% 29.99 in 10.0 mi NNE 9.2 mph - N/A   Clear
4:55 AM 55.4 °F 32.0 °F 41% 29.99 in 10.0 mi NNE 8.1 mph - N/A   Clear
5:15 AM 55.4 °F 32.0 °F 41% 29.99 in 10.0 mi NNE 8.1 mph - N/A   Clear
5:35 AM 57.2 °F 32.0 °F 38% 29.99 in 10.0 mi NE 6.9 mph - N/A   Clear
5:55 AM 55.4 °F 32.0 °F 41% 29.99 in 10.0 mi NE 9.2 mph - N/A   Clear
6:15 AM 55.4 °F 32.0 °F 41% 29.98 in 10.0 mi NE 5.8 mph - N/A   Clear
6:35 AM 55.4 °F 32.0 °F 41% 29.98 in 10.0 mi NE 6.9 mph - N/A   Clear
6:55 AM 55.4 °F 32.0 °F 41% 29.99 in 10.0 mi NNE 8.1 mph - N/A   Clear
7:15 AM 55.4 °F 32.0 °F 41% 29.99 in 10.0 mi NE 5.8 mph - N/A   Clear
7:35 AM 57.2 °F 32.0 °F 38% 29.99 in 10.0 mi Calm Calm - N/A   Clear
7:55 AM 59.0 °F 32.0 °F 36% 30.00 in 10.0 mi Calm Calm - N/A   Clear
8:15 AM 59.0 °F 32.0 °F 36% 30.00 in 10.0 mi Calm Calm - N/A   Clear
8:35 AM 60.8 °F 32.0 °F 34% 30.00 in 10.0 mi Calm Calm - N/A   Clear
8:55 AM 60.8 °F 33.8 °F 36% 30.00 in 10.0 mi Calm Calm - N/A   Clear
9:15 AM 62.6 °F 33.8 °F 34% 30.01 in 10.0 mi Calm Calm - N/A   Clear
9:35 AM 64.4 °F 33.8 °F 32% 30.01 in 10.0 mi SE 4.6 mph - N/A   Clear
9:55 AM 66.2 °F 33.8 °F 30% 30.00 in 10.0 mi SE 4.6 mph - N/A   Clear
10:15 AM 68.0 °F 32.0 °F 26% 30.00 in 10.0 mi SE 3.5 mph - N/A   Clear
10:35 AM 68.0 °F 33.8 °F 28% 30.00 in 10.0 mi South 5.8 mph - N/A   Clear
10:55 AM 69.8 °F 32.0 °F 25% 30.00 in 10.0 mi SSW 5.8 mph - N/A   Clear
11:15 AM 68.0 °F 32.0 °F 26% 29.99 in 10.0 mi SSW 4.6 mph - N/A   Clear
11:35 AM 69.8 °F 32.0 °F 25% 29.99 in 10.0 mi SSW 5.8 mph - N/A   Clear
11:55 AM 73.4 °F 32.0 °F 22% 29.98 in 10.0 mi SE 9.2 mph - N/A   Clear
12:15 PM 73.4 °F 32.0 °F 22% 29.97 in 10.0 mi SSW 8.1 mph - N/A   Clear
12:35 PM 71.6 °F 32.0 °F 23% 29.96 in 10.0 mi WSW 3.5 mph - N/A   Clear
12:55 PM 75.2 °F 32.0 °F 21% 29.95 in 10.0 mi SSW 10.4 mph - N/A   Clear
1:15 PM 75.2 °F 32.0 °F 21% 29.94 in 10.0 mi South 9.2 mph - N/A   Clear
1:55 PM 75.2 °F 30.2 °F 19% 29.93 in 10.0 mi SSW 9.2 mph 19.6 mph N/A   Clear
2:15 PM 77.0 °F 32.0 °F 19% 29.91 in 10.0 mi SW 8.1 mph - N/A   Clear
2:35 PM 73.4 °F 30.2 °F 20% 29.89 in 10.0 mi West 5.8 mph - N/A   Clear
2:55 PM 73.4 °F 28.4 °F 19% 29.88 in 10.0 mi SSW 4.6 mph - N/A   Clear
3:15 PM 73.4 °F 30.2 °F 20% 29.88 in 10.0 mi West 10.4 mph 17.3 mph N/A   Clear
3:35 PM 73.4 °F 28.4 °F 19% 29.88 in 10.0 mi SW 10.4 mph - N/A   Clear
3:55 PM 77.0 °F 30.2 °F 18% 29.87 in 10.0 mi SSW 11.5 mph 18.4 mph N/A   Scattered Clouds
4:15 PM 75.2 °F 28.4 °F 18% 29.87 in 10.0 mi SSW 10.4 mph - N/A   Clear
4:35 PM 71.6 °F 28.4 °F 20% 29.87 in 10.0 mi SSW 11.5 mph 20.7 mph N/A   Clear
4:55 PM 71.6 °F 28.4 °F 20% 29.87 in 10.0 mi South 13.8 mph 20.7 mph N/A   Scattered Clouds
5:15 PM 69.8 °F 28.4 °F 21% 29.90 in 10.0 mi NW 15.0 mph 24.2 mph N/A   Mostly Cloudy
5:35 PM 68.0 °F 30.2 °F 24% 29.91 in 10.0 mi North 13.8 mph 21.9 mph N/A   Overcast
5:55 PM 62.6 °F 35.6 °F 37% 29.93 in 7.0 mi North 11.5 mph 43.7 mph N/A Rain Rain
6:15 PM 64.4 °F 33.8 °F 32% 29.92 in 10.0 mi North 3.5 mph - N/A   Mostly Cloudy
6:55 PM 62.6 °F 33.8 °F 34% 29.92 in 10.0 mi ENE 10.4 mph 16.1 mph N/A   Mostly Cloudy
7:15 PM 62.6 °F 33.8 °F 34% 29.91 in 10.0 mi East 5.8 mph - N/A   Mostly Cloudy
7:55 PM 60.8 °F 35.6 °F 39% 29.92 in 10.0 mi NNE 9.2 mph - N/A   Clear
8:15 PM 60.8 °F 35.6 °F 39% 29.93 in 10.0 mi NE 8.1 mph - N/A   Clear
8:35 PM 60.8 °F 35.6 °F 39% 29.93 in 10.0 mi NE 9.2 mph - N/A   Clear
8:55 PM 59.0 °F 35.6 °F 42% 29.94 in 10.0 mi NE 8.1 mph - N/A   Clear
9:15 PM 59.0 °F 35.6 °F 42% 29.95 in 10.0 mi NE 9.2 mph - N/A   Clear
9:35 PM 57.2 °F 35.6 °F 44% 29.95 in 10.0 mi NNE 8.1 mph - N/A   Clear
9:55 PM 59.0 °F 35.6 °F 42% 29.95 in 10.0 mi NE 5.8 mph - N/A   Clear
10:15 PM 55.4 °F 35.6 °F 47% 29.95 in 10.0 mi NE 6.9 mph - N/A   Clear
10:35 PM 55.4 °F 35.6 °F 47% 29.95 in 10.0 mi NE 6.9 mph - N/A   Clear
10:55 PM 55.4 °F 35.6 °F 47% 29.95 in 10.0 mi NE 6.9 mph - N/A   Clear
11:15 PM 55.4 °F 33.8 °F 44% 29.95 in 10.0 mi NE 5.8 mph - N/A   Clear
11:35 PM 55.4 °F 33.8 °F 44% 29.94 in 10.0 mi NE 5.8 mph - N/A   Clear
11:55 PM 55.4 °F 33.8 °F 44% 29.94 in 10.0 mi NNE 6.9 mph - N/A   Clear